TimeCDT,TemperatureF,Dew PointF,Humidity,Sea Level PressureIn,VisibilityMPH,Wind Direction,Wind SpeedMPH,Gust SpeedMPH,PrecipitationIn,Events,Conditions,WindDirDegrees,DateUTC
12:53 AM,77.0,64.0,64,29.97,10.0,East,9.2,-,N/A,,Clear,90,2013-07-11 05:53:00
1:53 AM,75.9,63.0,64,29.97,10.0,East,9.2,-,N/A,,Clear,80,2013-07-11 06:53:00
2:53 AM,75.9,63.0,64,29.96,10.0,East,9.2,-,N/A,,Mostly Cloudy,100,2013-07-11 07:53:00
3:53 AM,75.9,63.0,64,29.99,10.0,NNW,3.5,-,N/A,,Partly Cloudy,330,2013-07-11 08:53:00
4:53 AM,73.9,63.0,68,30.02,10.0,NNE,15.0,-,N/A,,Partly Cloudy,30,2013-07-11 09:53:00
5:53 AM,73.9,64.0,71,29.96,10.0,ENE,8.1,-,N/A,,Clear,70,2013-07-11 10:53:00
6:53 AM,73.0,64.0,73,29.95,10.0,ESE,13.8,-,N/A,,Clear,120,2013-07-11 11:53:00
7:53 AM,72.0,64.9,78,29.98,10.0,East,6.9,-,N/A,,Clear,80,2013-07-11 12:53:00
8:34 AM,73.4,64.4,73,30.07,10.0,ESE,6.9,-,N/A,,Mostly Cloudy,120,2013-07-11 13:34:00
8:53 AM,75.9,63.0,64,30.00,10.0,SE,11.5,-,N/A,,Overcast,130,2013-07-11 13:53:00
9:53 AM,77.0,64.0,64,29.99,10.0,ESE,10.4,-,N/A,,Overcast,120,2013-07-11 14:53:00
10:53 AM,82.0,64.9,56,29.98,10.0,SE,16.1,25.3,N/A,,Mostly Cloudy,130,2013-07-11 15:53:00
11:05 AM,82.4,66.2,58,30.05,10.0,SSE,17.3,24.2,N/A,,Scattered Clouds,150,2013-07-11 16:05:00
11:53 AM,84.9,66.0,53,29.97,10.0,SE,15.0,-,N/A,,Clear,140,2013-07-11 16:53:00
12:53 PM,89.1,64.9,45,29.95,10.0,SSE,11.5,19.6,N/A,,Clear,150,2013-07-11 17:53:00
1:53 PM,91.9,64.0,39,29.93,10.0,SSE,13.8,21.9,N/A,,Clear,150,2013-07-11 18:53:00
2:53 PM,93.0,63.0,37,29.91,10.0,South,9.2,18.4,N/A,,Clear,170,2013-07-11 19:53:00
3:53 PM,95.0,61.0,32,29.88,10.0,SSE,13.8,19.6,N/A,,Clear,150,2013-07-11 20:53:00
4:53 PM,97.0,60.1,29,29.85,10.0,South,12.7,24.2,N/A,,Clear,170,2013-07-11 21:53:00
5:53 PM,97.0,62.1,31,29.83,10.0,SSE,12.7,21.9,N/A,,Partly Cloudy,150,2013-07-11 22:53:00
6:53 PM,93.9,64.0,37,29.81,10.0,ESE,10.4,-,N/A,,Mostly Cloudy,120,2013-07-11 23:53:00
7:53 PM,93.9,64.0,37,29.81,10.0,SE,18.4,24.2,N/A,,Mostly Cloudy,140,2013-07-12 00:53:00
8:53 PM,91.0,63.0,39,29.81,10.0,SE,13.8,-,N/A,,Scattered Clouds,140,2013-07-12 01:53:00
9:53 PM,88.0,63.0,43,29.84,10.0,SE,17.3,-,N/A,,Overcast,140,2013-07-12 02:53:00
10:53 PM,82.0,66.0,58,29.87,10.0,ESE,8.1,-,N/A,,Overcast,110,2013-07-12 03:53:00
11:53 PM,82.0,63.0,52,29.87,10.0,SSE,10.4,-,N/A,,Clear,150,2013-07-12 04:53:00